TimeEET,TemperatureF,Dew PointF,Humidity,Sea Level PressureIn,VisibilityMPH,Wind Direction,Wind SpeedMPH,Gust SpeedMPH,PrecipitationIn,Events,Conditions,WindDirDegrees,DateUTC
12:00 AM,51.8,42.8,71,30.21,-9999.0,WSW,3.5,-,N/A,,Clear,240,2013-12-13 22:00:00
1:00 AM,50.0,42.8,76,30.21,-9999.0,WSW,2.3,-,N/A,,Clear,240,2013-12-13 23:00:00
2:00 AM,48.2,42.8,82,30.21,-9999.0,SW,3.5,-,N/A,,Clear,230,2013-12-14 00:00:00
3:00 AM,48.2,41.0,76,30.18,-9999.0,Calm,Calm,-,N/A,,Clear,0,2013-12-14 01:00:00
4:00 AM,48.2,41.0,76,30.21,-9999.0,Calm,Calm,-,N/A,,Clear,0,2013-12-14 02:00:00
5:00 AM,47,42,77,30.24,6,SW,2.3,,,,,230,2013-12-14 03:00:00
5:00 AM,46.4,42.8,87,30.21,-9999.0,SW,2.3,-,N/A,,Clear,230,2013-12-14 03:00:00
6:00 AM,44.6,41.0,87,30.24,-9999.0,WSW,4.6,-,N/A,,Clear,250,2013-12-14 04:00:00
7:00 AM,46.4,41.0,81,30.24,-9999.0,WSW,5.8,-,N/A,,Clear,250,2013-12-14 05:00:00
8:00 AM,51,44,71,30.30,6,WSW,3.5,,,,,240,2013-12-14 06:00:00
8:00 AM,51.8,44.6,76,30.33,-9999.0,WSW,3.5,-,N/A,,Clear,240,2013-12-14 06:00:00
9:00 AM,55.4,46.4,72,30.30,-9999.0,West,6.9,-,N/A,,Clear,260,2013-12-14 07:00:00
10:00 AM,59.0,46.4,63,30.30,-9999.0,West,4.6,-,N/A,,Clear,280,2013-12-14 08:00:00
11:00 AM,61,47,49,30.30,6,WNW,6.9,,,,Partly Cloudy,290,2013-12-14 09:00:00
11:00 AM,60.8,46.4,59,30.30,6.2,WNW,6.9,-,N/A,,Scattered Clouds,290,2013-12-14 09:00:00
1:00 PM,62.6,46.4,55,30.24,6.2,NNW,6.9,-,N/A,,Mostly Cloudy,330,2013-12-14 11:00:00
2:00 PM,64,46,42,30.23,6,NW,6.9,,,,Mostly Cloudy,310,2013-12-14 12:00:00
4:00 PM,62.6,46.4,55,30.24,6.2,NW,6.9,-,N/A,,Mostly Cloudy,310,2013-12-14 14:00:00
5:00 PM,62,45,43,30.26,6,NNW,4.6,,,,Mostly Cloudy,330,2013-12-14 15:00:00
5:00 PM,-9999,-9999,N/A,30.24,6.2,North,-9999.0,-,N/A,,Mostly Cloudy,0,2013-12-14 15:00:00
6:00 PM,60.8,44.6,55,30.27,6.2,NW,3.5,-,N/A,,Mostly Cloudy,320,2013-12-14 16:00:00
7:00 PM,59.0,39.2,48,30.30,6.2,WNW,4.6,-,N/A,,Scattered Clouds,300,2013-12-14 17:00:00
8:00 PM,58,44,50,30.31,6,NW,3.5,,,,Partly Cloudy,310,2013-12-14 18:00:00
9:00 PM,55.4,44.6,67,30.30,-9999.0,NW,2.3,-,N/A,,Clear,310,2013-12-14 19:00:00
11:00 PM,55,44,57,30.33,6,Calm,Calm,,,,,,2013-12-14 21:00:00
11:00 PM,55.4,44.6,67,30.33,-9999.0,Calm,Calm,-,N/A,,Clear,0,2013-12-14 21:00:00